Location: Amanico Ergina Village
(37.7824°N, 122.4366°W)
Time: 08:12:23
(UTC+00:00)

Cosmos 2058 Rocket - Pass Details

Date: 29 October 2020
Orbit: 610 x 640 km, 82.5° (Epoch: 02 December)

Event Time Altitude Azimuth Distance (km) Brightness Sun altitude
Rises 13:51:20 0° 341° (NNW) 2,940 6.2 -8.8°
Reaches altitude 10° 13:53:47 10° 331° (NNW) 2,023 5.3 -8.3°
Maximum altitude 13:57:43 31° 270° (W) 1,113 3.8 -7.5°
Drops below altitude 10° 14:01:36 10° 208° (SSW) 1,994 5.5 -6.8°
Sets 14:04:00 0° 198° (SSW) 2,891 6.4 -6.3°
